Location: Jackson Park
(37.2862°N, 79.9123°W)
Time: 12:08:22
(UTC+00:00)

S-56A Canister/Altair - Pass Details

Date: 12 May 2026
Orbit: 632 x 2484 km, 38.9° (Epoch: 9 June)

Event Time Altitude Azimuth Distance (km) Brightness Sun altitude
Rises 08:12:47 0° 283° (WNW) 3,487 - -20.7°
Reaches altitude 10° 08:15:06 10° 276° (W) 2,725 - -20.4°
Exits shadow 08:17:56 27° 258° (WSW) 1,980 9.1 -19.9°
Maximum altitude 08:21:17 42° 207° (SSW) 1,722 8.8 -19.5°
Drops below altitude 10° 08:30:21 10° 141° (SE) 3,982 11.1 -18.1°
Sets 08:34:28 0° 136° (SE) 5,274 11.9 -17.5°
